This is the latest recevied weather packets stored in our database for station/object F8KGK-5. If no packets are shown the sender has not sent any weather packets the latest 10 day(s).
| Time | Temp. | Humidity | Pressure | Rain* | Wind** | Luminosity | Snow |
|---|---|---|---|---|---|---|---|
| 1787468854 | 15.56° C | 73% | 1018.4 hPa | 0 mm | - | - | - |
| 1787467054 | 15.56° C | 71% | 1018 hPa | 0 mm | - | - | - |
| 1787465253 | 14.44° C | 76% | 1018 hPa | 0 mm | - | - | - |
| 1787463454 | 12.22° C | 81% | 1017.7 hPa | 0 mm | - | - | - |
| 1787461655 | 12.22° C | 81% | 1017.7 hPa | 0 mm | - | - | - |
| 1787459853 | 12.22° C | 81% | 1017.4 hPa | 0 mm | - | - | - |
| 1787458053 | 12.22° C | 80% | 1017.4 hPa | 0 mm | - | - | - |
| 1787456253 | 12.22° C | 80% | 1017.4 hPa | 0 mm | - | - | - |
| 1787454454 | 12.78° C | 78% | 1017.5 hPa | 0 mm | - | - | - |
| 1787452648 | 13.33° C | 78% | 1017.6 hPa | 0 mm | - | - | - |
| 1787450849 | 13.33° C | 77% | 1017.8 hPa | 0 mm | - | - | - |
| 1787449048 | 13.33° C | 77% | 1017.7 hPa | 0 mm | - | - | - |
| 1787447249 | 13.89° C | 76% | 1017.6 hPa | 0 mm | - | - | - |
| 1787445450 | 13.89° C | 76% | 1017.3 hPa | 0 mm | - | - | - |
| 1787443648 | 14.44° C | 74% | 1017 hPa | 0 mm | - | - | - |
| 1787441849 | 14.44° C | 74% | 1017 hPa | 0 mm | - | - | - |
| 1787440049 | 15° C | 73% | 1017.1 hPa | 0 mm | - | - | - |
| 1787438251 | 15° C | 73% | 1017 hPa | 0 mm | - | - | - |
| 1787436451 | 15° C | 72% | 1016.8 hPa | 0 mm | - | - | - |
| 1787434651 | 15.56° C | 71% | 1016.8 hPa | 0 mm | - | - | - |
| 1787432851 | 15.56° C | 70% | 1016.7 hPa | 0 mm | - | - | - |
| 1787431051 | 15.56° C | 69% | 1016.7 hPa | 0 mm | - | - | - |
| 1787429252 | 16.11° C | 68% | 1016.7 hPa | 0 mm | - | - | - |
| 1787427452 | 16.67° C | 67% | 1016.6 hPa | 0 mm | - | - | - |
| 1787425652 | 17.22° C | 65% | 1016.3 hPa | 0 mm | - | - | - |
* Rain latest hour (hover to see other rain measurements)
** Current wind speed in m/s (hover to see current wind gust speed)